CW7959 Weather Reports


time (UTC)temp
C
wind
direction
speed
KPH
gust
KPH
rain 1hr
cm
rain 24hr
cm
rain mn
cm
humidity
%
barometer
mb
20260508163903 13 263 3.2 9.7 0.00 0.25 0.10 56 1017.6
20260508163402 13 268 4.8 12.9 0.00 0.25 0.10 55 1017.5
20260508162902 13 271 4.8 14.5 0.00 0.25 0.10 55 1017.5
20260508162404 13 265 4.8 9.7 0.00 0.25 0.10 56 1017.5
20260508161904 13 265 3.2 12.9 0.00 0.25 0.10 55 1017.5
20260508161402 13 211 1.6 9.7 0.00 0.25 0.10 56 1017.5
20260508160902 13 243 8.0 14.5 0.00 0.25 0.10 56 1017.5
20260508160403 13 277 4.8 16.1 0.00 0.25 0.10 55 1017.5
20260508155904 13 212 4.8 16.1 0.00 0.25 0.10 55 1017.5
20260508155402 13 272 4.8 16.1 0.00 0.25 0.10 55 1017.4
20260508154902 14 281 6.4 19.3 0.00 0.25 0.10 56 1017.4
20260508154404 13 281 4.8 9.7 0.00 0.25 0.10 55 1017.4
20260508153903 13 284 3.2 12.9 0.00 0.25 0.10 57 1017.4
20260508153404 13 267 3.2 11.3 0.00 0.25 0.10 57 1017.3
20260508152902 13 282 3.2 12.9 0.00 0.25 0.10 58 1017.1
20260508152403 13 256 4.8 12.9 0.00 0.25 0.10 58 1017.1
20260508151403 13 277 3.2 11.3 0.00 0.25 0.10 60 1017.2
20260508150902 13 282 3.2 12.9 0.00 0.25 0.10 61 1017.1
20260508150403 13 286 4.8 16.1 0.00 0.25 0.10 60 1017.0
20260508145902 13 292 3.2 12.9 0.00 0.25 0.10 58 1017.1
20260508145404 13 254 4.8 16.1 0.00 0.25 0.10 60 1017.1
20260508144903 13 242 3.2 9.7 0.00 0.25 0.10 63 1017.0
20260508144402 13 276 4.8 12.9 0.00 0.25 0.10 64 1017.0
20260508143403 13 242 3.2 11.3 0.00 0.25 0.10 61 1016.9
20260508142903 13 234 3.2 9.7 0.00 0.25 0.10 61 1016.8
20260508142402 13 234 3.2 12.9 0.00 0.25 0.10 61 1016.9
20260508141902 13 263 8.0 11.3 0.00 0.25 0.10 61 1016.9
20260508140902 13 323 4.8 16.1 0.00 0.25 0.10 61 1016.9
20260508140403 13 262 3.2 11.3 0.00 0.25 0.10 63 1016.9
20260508135904 13 275 3.2 14.5 0.00 0.25 0.10 65 1016.7
20260508135404 13 316 4.8 14.5 0.00 0.25 0.10 64 1016.7
20260508133902 12 297 4.8 9.7 0.00 0.25 0.10 68 1016.7
20260508133404 12 277 4.8 12.9 0.00 0.25 0.10 66 1016.7
20260508132903 12 313 4.8 16.1 0.00 0.25 0.10 65 1016.5
20260508132402 12 291 1.6 9.7 0.00 0.25 0.10 65 1016.6
20260508131903 12 313 6.4 14.5 0.00 0.25 0.10 66 1016.5
20260508131404 13 264 4.8 12.9 0.00 0.25 0.10 66 1016.5
20260508130904 13 220 6.4 14.5 0.00 0.25 0.10 67 1016.5
20260508130403 13 227 1.6 4.8 0.00 0.25 0.10 68 1016.5
20260508125903 13 227 4.8 11.3 0.00 0.25 0.10 65 1016.3
20260508125404 13 211 6.4 11.3 0.00 0.25 0.10 67 1016.3
20260508124403 13 214 6.4 12.9 0.00 0.25 0.10 71 1016.1
20260508123903 13 217 1.6 9.7 0.00 0.25 0.10 72 1016.1
20260508123402 12 217 4.8 11.3 0.00 0.25 0.10 70 1016.1
20260508122904 12 214 3.2 4.8 0.03 0.25 0.10 76 1016.1
20260508122403 12 214 4.8 9.7 0.03 0.25 0.10 77 1016.1
20260508121904 11 214 4.8 9.7 0.05 0.25 0.10 78 1016.2
20260508121404 11 214 3.2 14.5 0.05 0.25 0.10 78 1016.1
20260508120403 11 215 4.8 12.9 0.05 0.25 0.10 83 1016.2
20260508115402 10 215 1.6 9.7 0.05 0.25 0.10 84 1016.1
20260508114904 10 214 8.0 14.5 0.08 0.25 0.10 83 1016.1
20260508114403 10 215 4.8 12.9 0.08 0.25 0.10 84 1016.1
20260508113905 10 215 6.4 14.5 0.08 0.25 0.10 84 1016.0
20260508113403 10 219 3.2 11.3 0.08 0.25 0.10 83 1016.0
20260508112904 10 219 8.0 12.9 0.05 0.23 0.08 82 1015.9
20260508112403 10 221 8.0 12.9 0.05 0.23 0.08 82 1015.9
20260508111904 10 261 0.0 16.1 0.05 0.23 0.05 81 1015.9
20260508111404 11 221 4.8 12.9 0.05 0.23 0.05 81 1015.9
20260508110903 10 214 8.0 12.9 0.03 0.20 0.05 80 1015.7
20260508110404 10 214 3.2 9.7 0.03 0.20 0.05 78 1015.6
20260508105903 10 214 8.0 14.5 0.03 0.20 0.05 77 1015.5
20260508105403 11 214 9.7 19.3 0.03 0.20 0.05 77 1015.4
20260508104903 11 209 8.0 19.3 0.00 0.18 0.03 75 1015.3
20260508104403 11 212 9.7 14.5 0.00 0.18 0.03 75 1015.2
20260508103404 10 215 11.3 19.3 0.00 0.18 0.03 78 1015.0
20260508102903 10 211 9.7 16.1 0.00 0.18 0.03 78 1015.0
20260508102403 10 209 8.0 11.3 0.00 0.18 0.03 78 1015.0
20260508101902 10 208 8.0 12.9 0.00 0.18 0.03 79 1015.0
20260508101404 10 206 4.8 14.5 0.00 0.18 0.03 77 1014.9
20260508100902 10 215 11.3 20.9 0.00 0.18 0.03 75 1014.9
20260508100402 10 212 11.3 22.5 0.00 0.18 0.03 73 1014.8
20260508095903 11 207 11.3 20.9 0.00 0.18 0.03 73 1014.7
20260508095403 11 212 12.9 20.9 0.00 0.18 0.03 74 1014.7
20260508094902 11 216 11.3 19.3 0.00 0.18 0.03 74 1014.6
20260508094402 11 213 8.0 19.3 0.00 0.18 0.03 77 1014.5
20260508093903 11 213 11.3 19.3 0.00 0.18 0.03 76 1014.4
20260508093404 11 211 8.0 19.3 0.00 0.18 0.03 76 1014.5
20260508092903 10 210 9.7 19.3 0.00 0.18 0.03 77 1014.4
20260508092405 10 199 9.7 19.3 0.00 0.18 0.03 80 1014.4
20260508091903 10 216 9.7 19.3 0.00 0.18 0.03 81 1014.3
20260508090402 8 212 3.2 12.9 0.00 0.18 0.03 88 1014.2
20260508085902 8 211 0.0 0.0 0.00 0.18 0.03 88 1014.4
20260508085403 8 211 0.0 4.8 0.00 0.18 0.03 86 1014.2
20260508084903 9 211 0.0 8.0 0.00 0.18 0.03 86 1014.3
20260508084403 10 211 3.2 9.7 0.00 0.18 0.03 83 1014.2
20260508083403 10 210 6.4 16.1 0.00 0.18 0.03 80 1014.0
20260508082904 10 204 6.4 14.5 0.00 0.18 0.03 82 1013.9
20260508082404 10 194 8.0 14.5 0.00 0.18 0.03 82 1013.9
20260508081404 9 238 3.2 11.3 0.00 0.18 0.03 82 1013.8
20260508080904 9 240 3.2 11.3 0.00 0.18 0.03 83 1013.8
20260508075904 9 203 8.0 16.1 0.00 0.18 0.03 83 1013.7
20260508074902 9 212 4.8 12.9 0.00 0.18 0.03 85 1013.6
20260508074404 9 212 8.0 14.5 0.00 0.18 0.03 86 1013.6
20260508073402 8 214 9.7 16.1 0.00 0.18 0.03 87 1013.4
20260508072904 8 211 8.0 16.1 0.00 0.18 0.03 88 1013.4
20260508071904 8 214 6.4 12.9 0.03 0.18 0.03 89 1013.2
20260508071403 8 214 8.0 12.9 0.03 0.18 0.03 90 1013.2
20260508070903 8 215 4.8 11.3 0.03 0.18 0.03 90 1013.3
20260508070404 8 215 4.8 11.3 0.03 0.18 0.03 91 1013.2
20260508065903 8 215 8.0 12.9 0.03 0.18 0.03 91 1013.1
20260508065402 8 215 6.4 12.9 0.03 0.18 0.03 91 1013.1
20260508064903 8 215 4.8 14.5 0.03 0.18 0.03 91 1012.9
20260508064403 8 215 4.8 12.9 0.03 0.18 0.03 91 1013.0
20260508063403 8 217 3.2 9.7 0.03 0.18 0.03 92 1012.8
20260508062404 8 217 4.8 12.9 0.03 0.18 0.03 91 1012.7
20260508061903 8 215 8.0 16.1 0.00 0.15 0.00 91 1012.6
20260508061402 8 219 4.8 9.7 0.00 0.15 0.00 92 1012.6
20260508060903 8 219 1.6 8.0 0.00 0.15 0.00 92 1012.6
20260508060403 7 219 0.0 3.2 0.00 0.15 0.00 92 1012.5
20260508055403 7 219 3.2 12.9 0.00 0.15 0.00 92 1012.2
20260508054403 7 219 0.0 4.8 0.00 0.15 0.00 92 1012.1
20260508053903 7 219 1.6 11.3 0.00 0.15 0.00 92 1012.0
20260508053404 7 219 1.6 9.7 0.00 0.15 0.00 92 1012.0
20260508052404 7 219 1.6 4.8 0.00 0.15 0.00 92 1012.0
20260508051902 7 219 0.0 4.8 0.00 0.15 0.00 92 1012.0
20260508051402 7 219 0.0 0.0 0.00 0.15 0.00 92 1012.0
20260508050404 7 219 0.0 4.8 0.00 0.15 0.00 92 1011.9
20260508045903 7 219 0.0 0.0 0.00 0.15 0.00 92 1011.8
20260508045403 7 219 0.0 0.0 0.00 0.15 0.00 92 1011.7
20260508044904 7 219 0.0 4.8 0.00 0.15 0.00 92 1011.7
20260508043903 7 219 0.0 0.0 0.00 0.15 0.00 91 1011.6
20260508043403 7 219 0.0 0.0 0.00 0.15 0.00 91 1011.5
20260508042904 7 219 0.0 1.6 0.00 0.15 0.00 91 1011.5
20260508041902 7 219 0.0 0.0 0.00 0.15 0.00 91 1011.4
20260508041403 7 219 0.0 0.0 0.00 0.15 0.00 91 1011.3
20260508040903 7 219 0.0 0.0 0.00 0.15 0.00 91 1011.2
20260508040404 7 219 0.0 0.0 0.00 0.15 0.00 91 1011.2
20260508034904 8 219 0.0 1.6 0.00 0.15 0.00 91 1011.2
20260508034406 8 219 0.0 4.8 0.00 0.15 0.00 91 1011.1
20260508033903 8 219 3.2 9.7 0.00 0.15 0.00 91 1011.2
20260508033403 8 219 4.8 11.3 0.00 0.15 0.00 91 1010.9
20260508032903 8 219 3.2 12.9 0.00 0.15 0.00 91 1010.9
20260508032403 8 217 8.0 19.3 0.00 0.15 0.00 91 1010.8
20260508031903 8 214 0.0 4.8 0.00 0.15 0.00 92 1010.7
20260508031403 8 214 1.6 8.0 0.00 0.15 0.00 91 1010.8
20260508030903 7 214 0.0 11.3 0.00 0.15 0.00 91 1010.8
20260508030403 7 214 1.6 9.7 0.00 0.15 0.00 91 1010.8
20260508025903 7 214 1.6 4.8 0.00 0.15 0.00 91 1010.8
20260508025405 8 214 0.0 4.8 0.00 0.15 0.00 91 1010.8
20260508024903 8 214 0.0 4.8 0.00 0.15 0.00 91 1010.8
20260508024403 8 214 1.6 4.8 0.00 0.15 0.00 90 1010.7
20260508023903 8 214 0.0 3.2 0.00 0.15 0.00 91 1010.7
20260508023403 8 214 0.0 0.0 0.00 0.15 0.00 90 1010.6
20260508022903 8 214 0.0 3.2 0.00 0.15 0.00 90 1010.5
20260508021905 8 214 0.0 4.8 0.00 0.15 0.00 90 1010.5
20260508021404 8 214 1.6 12.9 0.00 0.15 0.00 90 1010.6
20260508020904 8 215 1.6 4.8 0.00 0.15 0.00 90 1010.6
20260508020403 8 215 1.6 14.5 0.00 0.15 0.00 90 1010.5
20260508015904 8 215 8.0 19.3 0.00 0.15 0.00 90 1010.5
20260508015403 8 215 6.4 12.9 0.00 0.15 0.00 90 1010.4
20260508014903 8 226 6.4 19.3 0.00 0.15 0.00 90 1010.4
20260508014404 8 219 4.8 12.9 0.00 0.15 0.00 90 1010.5
20260508013903 8 219 8.0 20.9 0.00 0.15 0.00 91 1010.4
20260508013403 8 220 4.8 16.1 0.00 0.15 0.00 91 1010.3
20260508012903 8 213 4.8 9.7 0.00 0.15 0.00 91 1010.3
20260508012403 8 213 1.6 11.3 0.00 0.15 0.00 91 1010.4
20260508010904 8 217 9.7 19.3 0.00 0.15 0.00 91 1010.2
20260508010404 8 211 8.0 12.9 0.00 0.15 0.00 92 1010.2
20260508005403 8 211 9.7 19.3 0.00 0.15 0.00 92 1010.3
20260508004903 8 209 8.0 19.3 0.00 0.15 0.00 92 1010.3
20260508004403 8 211 8.0 11.3 0.00 0.15 0.00 92 1010.3
20260508003905 8 211 4.8 12.9 0.00 0.15 0.00 93 1010.3
20260508002903 8 210 3.2 11.3 0.00 0.15 0.00 93 1010.3
20260508002404 8 210 4.8 11.3 0.00 0.15 0.00 93 1010.2
20260508001903 8 210 1.6 12.9 0.00 0.15 0.00 93 1010.3
20260508001403 8 209 6.4 16.1 0.00 0.15 0.00 93 1010.3
20260508000903 8 213 4.8 11.3 0.00 0.15 0.00 93 1010.2
20260508000405 8 213 9.7 19.3 0.00 0.15 0.00 93 1010.2
20260507235903 8 212 3.2 11.3 0.00 0.15 0.00 93 1010.1
20260507235404 8 212 1.6 8.0 0.03 0.15 0.00 93 1010.1
20260507234903 8 212 1.6 11.3 0.03 0.15 0.00 93 1010.1
20260507234404 8 212 1.6 12.9 0.03 0.15 0.00 93 1010.1
20260507232904 8 209 1.6 9.7 0.03 0.15 0.00 93 1010.0
20260507231404 8 209 3.2 11.3 0.03 0.15 0.00 93 1010.0
20260507230905 8 209 1.6 4.8 0.03 0.15 0.00 93 1010.0
20260507230404 8 209 0.0 3.2 0.05 0.15 0.00 93 1010.0
20260507225904 8 209 0.0 3.2 0.05 0.15 0.15 93 1010.0
20260507225405 8 209 0.0 1.6 0.08 0.15 0.15 93 1010.0
20260507224904 8 209 0.0 3.2 0.08 0.15 0.15 93 1009.9
20260507224404 8 209 0.0 4.8 0.08 0.15 0.15 93 1009.9
20260507223903 8 209 0.0 4.8 0.08 0.15 0.15 93 1010.0
20260507222903 8 209 0.0 4.8 0.10 0.15 0.15 92 1009.9
20260507222403 8 209 0.0 3.2 0.10 0.15 0.15 92 1009.9
20260507221904 8 209 1.6 4.8 0.10 0.15 0.15 92 1009.9
20260507221406 8 209 0.0 9.7 0.10 0.15 0.15 92 1009.9
20260507220904 8 209 6.4 11.3 0.10 0.15 0.15 92 1010.1
20260507215904 8 209 0.0 11.3 0.05 0.10 0.10 92 1009.9
20260507215404 8 209 3.2 8.0 0.05 0.08 0.08 92 1009.9
20260507214904 8 209 0.0 9.7 0.05 0.05 0.05 91 1009.8
20260507214404 8 209 1.6 9.7 0.05 0.05 0.05 91 1009.7
20260507213905 8 209 1.6 12.9 0.05 0.05 0.05 91 1009.8
20260507212905 8 209 0.0 4.8 0.03 0.05 0.05 91 1009.8
20260507212404 8 209 3.2 11.3 0.03 0.05 0.05 90 1009.8
20260507211904 8 209 1.6 8.0 0.03 0.05 0.05 90 1009.7
20260507211404 9 209 0.0 4.8 0.03 0.05 0.05 90 1009.7
20260507210904 9 209 0.0 3.2 0.03 0.05 0.05 90 1009.7
20260507210405 9 209 0.0 1.6 0.03 0.05 0.05 89 1009.7
20260507205905 9 209 1.6 9.7 0.03 0.05 0.05 89 1009.7
20260507205403 9 210 1.6 9.7 0.00 0.03 0.03 88 1009.7
20260507204905 9 210 6.4 11.3 0.00 0.03 0.03 87 1009.6
20260507203905 9 209 4.8 14.5 0.00 0.03 0.03 87 1009.4
20260507203404 9 214 8.0 19.3 0.00 0.03 0.03 87 1009.4
20260507202905 9 215 4.8 12.9 0.00 0.03 0.03 88 1009.4
20260507202404 9 217 6.4 12.9 0.00 0.03 0.03 88 1009.3
20260507201903 9 217 1.6 9.7 0.00 0.03 0.03 88 1009.3
20260507201404 9 217 3.2 9.7 0.00 0.03 0.03 88 1009.2
20260507200905 9 217 4.8 12.9 0.00 0.03 0.03 88 1009.3
20260507200405 9 218 4.8 19.3 0.00 0.03 0.03 88 1009.2
20260507195903 9 216 8.0 14.5 0.00 0.03 0.03 88 1009.2
20260507195403 9 214 8.0 19.3 0.00 0.03 0.03 87 1009.3
20260507194904 9 215 4.8 14.5 0.00 0.03 0.03 87 1009.3
20260507194405 9 207 4.8 22.5 0.00 0.03 0.03 87 1009.4
20260507192904 10 211 0.0 0.0 0.00 0.03 0.03 87 1009.1
20260507191904 10 211 0.0 8.0 0.00 0.03 0.03 86 1009.0
20260507191405 10 211 1.6 9.7 0.00 0.03 0.03 86 1009.1
20260507190403 10 211 3.2 8.0 0.03 0.03 0.03 86 1009.2
20260507185904 10 211 3.2 9.7 0.03 0.03 0.03 86 1009.1
20260507184405 10 215 4.8 16.1 0.03 0.03 0.03 86 1009.0
20260507183903 10 213 8.0 14.5 0.03 0.03 0.03 86 1009.0
20260507182903 10 213 8.0 14.5 0.03 0.03 0.03 86 1009.1
20260507182404 10 212 4.8 19.3 0.03 0.03 0.03 86 1009.1
20260507181903 10 208 9.7 16.1 0.03 0.03 0.03 86 1009.1
20260507181404 10 217 8.0 16.1 0.03 0.03 0.03 85 1009.1
20260507180903 10 211 1.6 16.1 0.00 0.00 0.00 84 1009.0
20260507175403 11 209 1.6 9.7 0.00 0.00 0.00 81 1008.8
20260507174904 11 209 0.0 4.8 0.00 0.00 0.00 78 1008.8
20260507174405 11 209 3.2 11.3 0.00 0.00 0.00 76 1008.8
20260507173904 11 209 8.0 11.3 0.00 0.00 0.00 75 1008.6
20260507173403 11 208 6.4 11.3 0.00 0.00 0.00 75 1008.7
20260507172903 11 208 8.0 11.3 0.00 0.00 0.00 74 1008.7
20260507172404 12 208 4.8 11.3 0.00 0.00 0.00 73 1008.7
20260507171904 12 208 6.4 11.3 0.00 0.00 0.00 72 1008.8
20260507171403 12 209 3.2 11.3 0.00 0.00 0.00 72 1008.7
20260507170904 12 209 3.2 11.3 0.00 0.00 0.00 71 1008.8
20260507170403 12 208 8.0 19.3 0.00 0.00 0.00 71 1008.7
20260507165903 12 211 8.0 19.3 0.00 0.00 0.00 74 1008.8
20260507165403 12 208 4.8 14.5 0.00 0.00 0.00 71 1008.8
20260507164903 12 221 6.4 16.1 0.00 0.00 0.00 71 1008.7
20260507164403 12 215 6.4 16.1 0.00 0.00 0.00 71 1008.7